[[{"header":{"parameterUnit":"m.s-1","parameterCategory":1,"la1":30.2991,"la2":30.254,"lo1":-89.0895,"lo2":-89.0444,"dy":0.0017,"dx":0.0017,"nx":28,"ny":28,"refTime":"2025-05-15T09:00:00:Z","depth":0,"parameterNumber":2,"parameterNumberName":"U-component_of_WINDS"},"data":[0,0,0,0,0,0,0,0,0,0,0,0,0,0,0,0,0,0,0,0,0,0,0,0,0,0,0,0,0,0,0,0,0,0,0,0,0,0,0,0,0,0,0,0,0,0,0,0,0,0,0,0,0,0,0,0,0,0,1.4273,1.4273,0,1.4331,1.4332,1.4332,1.4326,1.4325,1.4324,1.4323,1.4381,1.4383,1.4386,0,0,0,0,0,0,0,0,0,0,0,0,0,1.4153,1.4155,1.4273,1.4273,1.4274,1.4331,1.4332,1.4332,1.4326,1.4325,1.4324,1.4323,1.438,1.4383,1.4386,0,0,0,0,0,0,0,0,0,0,0,0,0,1.4207,1.4156,1.4273,1.4278,1.4279,1.4331,1.4332,1.4333,1.4326,1.4325,1.4324,1.4322,1.4379,1.4383,1.4386,1.4436,0,0,1.4397,1.4399,0,0,0,0,0,0,0,0,1.4204,1.4212,1.4276,1.4278,1.4279,1.432,1.4311,1.4367,1.4327,1.4308,1.4323,1.4322,1.4362,1.4367,1.4381,1.4439,1.4441,1.4398,1.44,1.4401,1.4402,0,0,0,0,0,0,0,1.42,1.4209,1.4296,1.4277,1.4279,1.4276,1.4282,1.4321,1.4342,1.431,1.4309,1.4317,1.4362,1.4377,1.4382,1.4442,1.4398,1.4401,1.4403,1.4404,1.4542,1.4543,0,0,0,0,0,0,1.4196,1.4206,1.4294,1.4297,1.4237,1.4279,1.4286,1.4308,1.4342,1.4345,1.4318,1.4316,1.4372,1.4378,1.4384,1.4443,1.4401,1.4405,1.4407,1.454,1.4542,1.4544,0,0,0,0,0,0,1.4193,1.4203,1.4291,1.4252,1.4263,1.4283,1.4307,1.431,1.4325,1.4348,1.4351,1.4329,1.4371,1.4379,1.4423,1.4445,1.4406,1.441,1.4538,1.4541,1.4543,1.4562,0,0,0,0,0,0,1.419,1.4203,1.4223,1.4252,1.4265,1.4331,1.4309,1.4312,1.4331,1.433,1.4359,1.4363,1.437,1.4417,1.4426,1.4449,1.4412,1.4537,1.4539,1.4542,1.4559,1.4564,1.4569,0,0,0,0,0,1.4185,1.4226,1.4224,1.4234,1.429,1.4332,1.4339,1.4347,1.4333,1.4353,1.4367,1.4362,1.4441,1.4422,1.4432,1.4456,1.4535,1.4539,1.4542,1.4557,1.4563,1.4569,0,0,0,0,0,0,1.4198,1.423,1.4228,1.4279,1.4303,1.4331,1.4356,1.4354,1.4381,1.4379,1.4387,1.4394,1.4438,1.4451,1.443,1.4505,1.4486,1.4492,1.4494,1.45,1.4505,1.45,1.4415,0,0,0,0,0,1.4207,1.4239,1.4264,1.4307,1.4319,1.4335,1.4354,1.4358,1.4383,1.4392,1.441,1.4433,1.4463,1.4483,1.4511,1.4561,1.4567,1.4583,1.4587,1.4591,1.4595,1.4621,1.4628,1.4555,1.4555,1.4555,0,0,1.4225,1.4247,1.4266,1.431,1.4329,1.4361,1.4344,1.4379,1.4401,1.4397,1.444,1.4453,1.448,1.4526,1.4548,1.4539,1.4617,1.4595,1.4598,1.4601,1.4625,1.4632,1.4638,1.4557,1.4557,1.4556,0,0,1.4275,1.4295,1.4332,1.4351,1.438,1.439,1.4399,1.4427,1.4435,1.4478,1.4475,1.4502,1.4554,1.4572,1.4588,1.4643,1.4639,1.4652,1.4677,1.4701,1.4707,1.4712,1.473,1.4736,1.4657,1.4657,1.4657,0,1.4294,1.4342,1.4351,1.4386,1.4404,1.4402,1.4438,1.4456,1.4493,1.4505,1.4495,1.4558,1.4576,1.4626,1.4639,1.4653,1.4662,1.4649,1.4706,1.4711,1.4716,1.4733,1.474,1.4658,1.4658,1.4658,1.4658,0,1.4363,1.4397,1.4423,1.4458,1.448,1.4515,1.4528,1.4549,1.455,1.4561,1.4603,1.4625,1.4657,1.4669,1.4672,1.4719,1.4712,1.4704,1.4685,1.4724,1.474,1.4747,1.466,1.4659,1.4659,1.4659,0,0,1.4423,1.4462,1.4471,1.4486,1.4517,1.4542,1.4577,1.4609,1.4625,1.465,1.4678,1.4721,1.4713,1.4731,1.4735,1.4757,1.4797,1.4746,1.4746,1.4753,1.4848,1.4853,1.4861,1.4794,1.4796,1.4797,1.4845,0,1.4474,1.4536,1.4544,1.4598,1.4628,1.4626,1.4656,1.4677,1.4688,1.4713,1.4725,1.4755,1.4743,1.4753,1.4775,1.4787,1.4816,1.4784,1.4819,1.482,1.4811,1.487,1.4876,1.4921,1.4852,1.4853,1.4854,0,1.4543,1.457,1.4627,1.4652,1.4665,1.4691,1.472,1.4746,1.4769,1.4775,1.4795,1.4796,1.4829,1.481,1.4855,1.4834,1.4848,1.4856,1.4858,1.4861,1.4839,1.4873,1.4936,1.4942,1.4864,1.4863,1.4862,0,1.4579,1.4629,1.4669,1.4682,1.4713,1.4731,1.4745,1.4767,1.4785,1.481,1.4821,1.485,1.4865,1.4886,1.4894,1.4879,1.4939,1.492,1.4943,1.4943,1.4955,1.4954,1.502,1.4967,1.4967,1.4967,1.4966,0,1.4635,1.4669,1.4685,1.471,1.4748,1.4756,1.4793,1.4806,1.4825,1.4851,1.4851,1.4875,1.4885,1.491,1.4916,1.4952,1.4959,1.4964,1.4965,1.4963,1.4962,1.4972,1.4969,1.4968,1.4968,1.4968,1.4967,0,1.4681,1.4693,1.4737,1.4762,1.4769,1.4796,1.4817,1.484,1.485,1.4882,1.489,1.4906,1.4935,1.4945,1.4981,1.4985,1.5026,1.5026,1.5019,1.5019,1.5041,1.5038,1.5114,1.5124,1.5065,1.5066,1.5066,0,1.4715,1.4742,1.477,1.4787,1.4801,1.483,1.4848,1.4857,1.4875,1.4903,1.4922,1.4951,1.4975,1.5022,1.5036,1.5063,1.5061,1.5086,1.5065,1.5062,1.506,1.5058,1.506,1.509,1.509,1.5091,1.5091,0,1.4774,1.4779,1.4806,1.4834,1.4856,1.4879,1.49,1.4914,1.4926,1.4947,1.4977,1.4995,1.5031,1.506,1.5087,1.5099,1.5097,1.5098,1.5104,1.5103,1.5097,1.5099,1.5028,1.5096,1.5095,1.5095,1.5095,1.5095,1.4815,1.4837,1.486,1.489,1.4907,1.4927,1.4949,1.4962,1.4988,1.5018,1.5021,1.5053,1.5074,1.511,1.5124,1.5148,1.5141,1.5151,1.5153,1.5155,1.5156,1.5094,1.5153,1.5153,1.5153,1.5153,1.5153,0,1.4872,1.4887,1.4914,1.4944,1.4967,1.4963,1.4987,1.5005,1.5034,1.5054,1.5077,1.5111,1.5138,1.5153,1.518,1.5196,1.5196,1.5203,1.5201,1.5204,1.5162,1.5153,1.5203,1.5203,1.5203,1.5203,1.5203,1.5203,1.4905,1.4943,1.495,1.4995,1.5009,1.5041,1.5055,1.5073,1.5088,1.5126,1.5149,1.5159,1.5177,1.5205,1.5229,1.5232,1.5242,1.5249,1.5252,1.5212,1.5207,1.5202,1.5194,1.5252,1.5252,1.5292,1.5293,1.5293]},{"header":{"parameterUnit":"m.s-1","parameterCategory":1,"la1":30.2991,"la2":30.254,"lo1":-89.0895,"lo2":-89.0444,"dy":0.0017,"dx":0.0017,"nx":28,"ny":28,"refTime":"2025-05-15T09:00:00:Z","depth":0,"parameterNumber":3,"parameterNumberName":"V-component_of_WINDS"},"data":[0,0,0,0,0,0,0,0,0,0,0,0,0,0,0,0,0,0,0,0,0,0,0,0,0,0,0,0,0,0,0,0,0,0,0,0,0,0,0,0,0,0,0,0,0,0,0,0,0,0,0,0,0,0,0,0,0,0,5.3102,5.3103,0,5.319,5.3191,5.3192,5.3144,5.3142,5.314,5.3137,5.3221,5.3226,5.323,0,0,0,0,0,0,0,0,0,0,0,0,0,5.2887,5.2891,5.3102,5.3103,5.3105,5.319,5.3191,5.3192,5.3145,5.3142,5.3139,5.3136,5.322,5.3225,5.323,0,0,0,0,0,0,0,0,0,0,0,0,0,5.2978,5.2893,5.3102,5.3091,5.3091,5.319,5.3191,5.3193,5.3145,5.3142,5.3138,5.3135,5.3218,5.3224,5.3231,5.3344,0,0,5.3251,5.3254,0,0,0,0,0,0,0,0,5.2973,5.2986,5.3092,5.3092,5.3092,5.3153,5.3146,5.3243,5.3146,5.3125,5.3137,5.3133,5.3201,5.3209,5.3233,5.3347,5.3351,5.3252,5.3256,5.3259,5.3261,0,0,0,0,0,0,0,5.2967,5.2982,5.3137,5.3093,5.3094,5.308,5.3089,5.3164,5.3181,5.3126,5.3123,5.3134,5.32,5.3227,5.3234,5.3352,5.3252,5.3258,5.3262,5.3264,5.3562,5.3566,0,0,0,0,0,0,5.2962,5.2977,5.3134,5.3139,5.3023,5.3087,5.3097,5.3137,5.3181,5.3184,5.3137,5.3132,5.3217,5.3227,5.3237,5.3372,5.3259,5.3265,5.3269,5.3559,5.3563,5.3567,0,0,0,0,0,0,5.2958,5.2977,5.313,5.3058,5.3076,5.3094,5.314,5.314,5.3167,5.3189,5.3191,5.3161,5.3214,5.3228,5.3318,5.3374,5.3268,5.3274,5.3554,5.356,5.3565,5.3642,0,0,0,0,0,0,5.2952,5.2975,5.302,5.3059,5.308,5.3212,5.3143,5.3145,5.3179,5.3173,5.3212,5.3215,5.3213,5.3308,5.3324,5.3381,5.3279,5.3549,5.3557,5.3564,5.3634,5.3649,5.3662,0,0,0,0,0,5.2944,5.3036,5.3022,5.3041,5.3137,5.3215,5.3227,5.3224,5.3184,5.3228,5.3242,5.3214,5.3365,5.3318,5.3336,5.3395,5.3545,5.3554,5.3563,5.3628,5.3646,5.3662,0,0,0,0,0,0,5.3001,5.3041,5.3026,5.3134,5.3172,5.3207,5.3262,5.3244,5.3292,5.3284,5.3276,5.3285,5.3379,5.3396,5.3342,5.3506,5.3449,5.3461,5.3492,5.351,5.3523,5.3517,5.3285,0,0,0,0,0,5.3027,5.309,5.312,5.3212,5.3232,5.3244,5.3278,5.3273,5.3311,5.3326,5.3346,5.3382,5.3438,5.3474,5.3527,5.3636,5.3643,5.3686,5.37,5.3711,5.3722,5.3781,5.38,5.3596,5.3596,5.3596,0,0,5.308,5.3109,5.3149,5.3225,5.3253,5.3316,5.3258,5.3327,5.3373,5.3335,5.3422,5.3439,5.3478,5.3578,5.3623,5.3595,5.378,5.3722,5.3731,5.3736,5.3792,5.3811,5.3828,5.3602,5.3601,5.36,0,0,5.3208,5.3238,5.3318,5.3348,5.3392,5.34,5.3419,5.3457,5.3467,5.3554,5.3527,5.3581,5.3676,5.3706,5.3733,5.3872,5.3848,5.3889,5.3963,5.402,5.4036,5.405,5.41,5.4118,5.39,5.39,5.3901,0,5.3268,5.3364,5.3361,5.3433,5.3466,5.3437,5.3517,5.3545,5.3604,5.3627,5.3595,5.3714,5.3739,5.3845,5.3879,5.3902,5.3923,5.3885,5.4035,5.4049,5.4062,5.4109,5.4127,5.3905,5.3905,5.3904,5.3904,0,5.3435,5.3502,5.3561,5.3621,5.366,5.3736,5.3742,5.3783,5.3773,5.3783,5.3872,5.39,5.3957,5.3982,5.3972,5.4087,5.4068,5.4036,5.3978,5.4086,5.413,5.4148,5.3912,5.391,5.3909,5.3908,0,0,5.3603,5.366,5.3682,5.3708,5.3755,5.3806,5.3878,5.3937,5.3971,5.4012,5.4072,5.4154,5.4124,5.4155,5.4149,5.4199,5.4307,5.416,5.4161,5.4187,5.4434,5.4459,5.448,5.4291,5.4295,5.4297,5.4431,0,5.3735,5.3866,5.3865,5.3985,5.4046,5.4018,5.4082,5.4116,5.4127,5.4178,5.4189,5.4248,5.4204,5.4223,5.4271,5.4284,5.4357,5.4274,5.4346,5.4349,5.4338,5.4503,5.4529,5.4654,5.4448,5.4451,5.4453,0,5.3907,5.3956,5.4083,5.412,5.4146,5.4204,5.4256,5.4307,5.4344,5.4348,5.4383,5.4369,5.4441,5.4381,5.448,5.4423,5.4452,5.4463,5.4468,5.4474,5.4408,5.4514,5.4693,5.4712,5.448,5.4478,5.4476,0,5.4017,5.4114,5.4202,5.4226,5.4272,5.4313,5.4334,5.4368,5.4403,5.4448,5.447,5.4522,5.4551,5.4591,5.459,5.4546,5.4689,5.463,5.4694,5.4694,5.4726,5.4724,5.4912,5.4744,5.4744,5.4743,5.4743,0,5.4164,5.4243,5.4253,5.4307,5.4394,5.4391,5.4476,5.4492,5.4523,5.4578,5.4556,5.4608,5.4604,5.4656,5.4656,5.4737,5.475,5.4754,5.4753,5.4757,5.4756,5.4776,5.4767,5.4748,5.4747,5.4746,5.4745,0,5.4302,5.4312,5.4407,5.4443,5.4454,5.4516,5.4546,5.4597,5.4605,5.4676,5.4692,5.4705,5.4766,5.4769,5.4837,5.4837,5.4936,5.4925,5.4924,5.4922,5.4987,5.4981,5.5195,5.5222,5.5036,5.5037,5.5039,0,5.4396,5.4457,5.45,5.4537,5.4561,5.462,5.4656,5.4654,5.4692,5.4739,5.4784,5.4842,5.4889,5.4986,5.5,5.5052,5.5042,5.5114,5.505,5.5051,5.5043,5.504,5.5046,5.5126,5.5128,5.513,5.5131,0,5.4562,5.4564,5.4618,5.4674,5.4718,5.4761,5.4801,5.4832,5.4834,5.4877,5.494,5.4976,5.5047,5.5105,5.5156,5.5174,5.5153,5.5151,5.5169,5.5173,5.5171,5.5173,5.4959,5.5146,5.5145,5.5144,5.5143,5.5142,5.4681,5.4734,5.4773,5.4833,5.4863,5.4901,5.4951,5.4967,5.5019,5.5079,5.5073,5.5142,5.5176,5.5243,5.5266,5.5318,5.5293,5.5319,5.5325,5.5332,5.5339,5.5162,5.5327,5.5326,5.5326,5.5326,5.5325,0,5.4846,5.487,5.4926,5.4984,5.5031,5.5009,5.5052,5.5092,5.5154,5.5189,5.5236,5.5307,5.5362,5.5381,5.5435,5.5473,5.5465,5.5487,5.5485,5.5489,5.5358,5.5337,5.5493,5.5493,5.5493,5.5493,5.5493,5.5493,5.4938,5.5026,5.5032,5.5133,5.5155,5.5225,5.5251,5.5285,5.5313,5.5395,5.5442,5.5454,5.5482,5.5538,5.5587,5.5591,5.5612,5.5639,5.5638,5.5515,5.5498,5.5482,5.5463,5.5643,5.5643,5.5765,5.5767,5.5767]}]]